Find Starlink 31451

NORAD ID: 59366 Int'l Des: 2024-060 Owner: SPXS Country: US Constellation: starlink operational
LEOCIRCULAR

Current View

Loading 3D Globe...

About Starlink 31451

Starlink 31451 (NORAD 59366) is a starlink constellation satellite (v2 mini) launched Mar 31, 2024 by SPXS of US. It operates in LEO, CIRCULAR orbit with a mass of 730.00 kg.

About Starlink 31451

Description loading...

Upcoming Passes

Passes for default location (London). Set your location on the main map for personalized predictions.

Altitude History

Loading altitude history...

Two-Line Element Set

1 59366U 24060U 26171.32612042 .00009527 00000-0 35454-3 0 9995
2 59366 43.0005 39.8904 0000710 321.2769 38.8032 15.27649307125763
Epoch: Jun 20, 2026 • Age: 43 hours

Current Status

Altitude 483.1 km
Velocity 7.63 km/s
Sub-Earth Point 25.08°N, 132.66°W
Launch Date Mar 31, 2024
Age 2.2 years
Type internet

Technical Details

Classification Payload
Mass 730.00 kg
Dry Mass 700.00 kg
Total Mass 730.00 kg
Length 0.30 m
Diameter 4.10 m
Span 29.00 m
Shape Box + pan
Manufacturer SPXS
Bus Type Starlink V2M
Phase Status In Orbit
Owner/State SPXS/US

Most Searched